sat.trackr.live / text

‹ back to catalog

GSAT0214 (GALILEO 18)

NORAD 41862 · 2016-069D

PAYLOAD ACTIVE UNKNOWN

§ Identity

Operator
Country
ESA
Launch date
2016-11-17
Launch site
FRGUI
Launch vehicle
Mass (kg)
RCS (m²)
8.57

Purposes: earth_obs, nav

External: N2YO · Heavens-Above · Gunter

§ Orbital elements

Epoch: 2026-09-07T05:37:34.565376Z

Period
844.70 min
Inclination
55.5489°
Eccentricity
0.0002168
Mean motion
1.70473960 rev/d
Perigee alt
23,215.8 km
Apogee alt
23,228.6 km
Semi-major
29,600.3 km
B*
0.0000e+0
RAAN
98.8098°
Arg perigee
357.6818°
Mean anomaly
2.4092°
Rev number
6,104

§ Raw data

GSAT0214 (GALILEO 18)1 41862U 16069D   26250.23442784  .00000017  00000+0  00000+0 0  99982 41862  55.5489  98.8098 0002168 357.6818   2.4092  1.70473960 61041

JSON: /api/v1/satellites/41862 · /tle

For live sub-satellite position, see the globe view (requires WebGL).

§ Visibility from observer

Set your observer location to see the next 7 days of passes ≥ 10°. The values pass through the URL so the page stays shareable.

No JS? Fill the form by hand. The geolocation button needs JavaScript.